map of TGG home
Great Circle Mapper logo
TGG - Airport
Location
City:  Kuala Terengganu, Terengganu, Malaysia
Name:Sultan Mahmud
ICAO / IATA:WMKN / TGG

Details
Type:Airport (Aerodrome, Airfield)
Latitude:522'58"N (5.382639)
Longitude:10306'12"E (103.103360)
Datum:WGS 1984
Elevation:21 ft (6 m)
Variation:0.03W (WMM2015 magnetic declination)
-0.00 annual change
Runways:1
Longest:6600 × 150 ft (2012 × 45.5 m), paved

Time
Time Zone:UTC+8
Local Time:

Weather
METAR:WMKN 010200Z 06003KT 9999 SCT016 BKN280 29/24 Q1012

Related Locations
Nearby:
Farthest:MBP: 12386 mi / 19934 km
Moyobamba, PE

Find:

   beyond  
but within

Other Information
Maps:
NOTAMs:
Links:
Sources:

  
flag of Malaysia   

Sectional Chart

Flight Planning
at skyvector.com

Satellite Image

Google Maps Satellite View

 

Copyright © 2004-2015 Karl L. Swartz. All rights reserved.
The Great Circle Mapper name and logo are trademarks of the Great Circle Mapper.
All other trademarks mentioned herein belong to their respective owners.
Please see credits for attibutions and further copyright information.

  Follow gcmap on Facebook Follow gcmap on Twitter Follow gcmap on Google+

hCard Microformat

Geo Microformat